TimeCDT,TemperatureF,Dew PointF,Humidity,Sea Level PressureIn,VisibilityMPH,Wind Direction,Wind SpeedMPH,Gust SpeedMPH,PrecipitationIn,Events,Conditions,WindDirDegrees,DateUTC
12:15 AM,74.5,72.5,94,29.99,10.0,SSE,4.6,-,N/A,,Clear,150,2013-06-27 05:15:00
12:35 AM,74.7,72.7,94,29.99,10.0,Calm,Calm,-,N/A,,Clear,0,2013-06-27 05:35:00
1:15 AM,74.3,72.7,95,29.99,7.0,Calm,Calm,-,N/A,,Clear,0,2013-06-27 06:15:00
1:35 AM,73.6,72.0,95,29.99,7.0,Calm,Calm,-,N/A,,Scattered Clouds,0,2013-06-27 06:35:00
1:55 AM,73.6,72.0,95,29.99,7.0,SE,3.5,-,N/A,,Scattered Clouds,130,2013-06-27 06:55:00
2:15 AM,73.6,72.1,95,29.99,7.0,Calm,Calm,-,N/A,,Scattered Clouds,0,2013-06-27 07:15:00
2:35 AM,73.6,72.3,96,29.99,5.0,SE,3.5,-,N/A,,Clear,130,2013-06-27 07:35:00
2:55 AM,72.3,71.1,96,29.98,5.0,SE,4.6,-,N/A,,Clear,140,2013-06-27 07:55:00
3:15 AM,72.5,71.6,97,29.98,5.0,SE,3.5,-,N/A,,Clear,140,2013-06-27 08:15:00
3:35 AM,72.5,71.6,97,29.99,5.0,SE,4.6,-,N/A,,Clear,130,2013-06-27 08:35:00
3:55 AM,72.7,71.6,96,29.99,7.0,SE,3.5,-,N/A,,Clear,140,2013-06-27 08:55:00
4:15 AM,72.5,71.4,96,29.99,5.0,SE,3.5,-,N/A,,Clear,140,2013-06-27 09:15:00
4:35 AM,72.7,71.6,96,29.99,5.0,SSE,3.5,-,N/A,,Clear,160,2013-06-27 09:35:00
4:55 AM,73.4,72.1,96,29.99,7.0,SSE,3.5,-,N/A,,Clear,150,2013-06-27 09:55:00
5:15 AM,73.4,72.5,97,30.00,7.0,SSE,5.8,-,N/A,,Clear,150,2013-06-27 10:15:00
5:35 AM,73.6,72.5,96,29.99,7.0,SSE,4.6,-,N/A,,Clear,160,2013-06-27 10:35:00
5:55 AM,73.4,72.0,95,30.00,7.0,Calm,Calm,-,N/A,,Clear,0,2013-06-27 10:55:00
6:15 AM,73.6,72.3,96,30.00,7.0,Calm,Calm,-,N/A,,Clear,0,2013-06-27 11:15:00
6:35 AM,73.2,72.0,96,30.01,5.0,Calm,Calm,-,N/A,,Clear,0,2013-06-27 11:35:00
6:55 AM,72.7,71.4,96,30.01,4.0,SE,3.5,-,N/A,,Clear,130,2013-06-27 11:55:00
7:15 AM,73.4,72.3,96,30.01,4.0,Calm,Calm,-,N/A,,Clear,0,2013-06-27 12:15:00
8:15 AM,79.0,73.9,84,30.03,10.0,Calm,Calm,-,N/A,,Clear,0,2013-06-27 13:15:00
8:35 AM,81.1,73.8,78,30.04,10.0,SSW,4.6,-,N/A,,Clear,200,2013-06-27 13:35:00
8:55 AM,82.9,74.3,75,30.04,10.0,SW,8.1,-,N/A,,Clear,230,2013-06-27 13:55:00
9:15 AM,83.8,73.8,72,30.04,10.0,SW,5.8,-,N/A,,Scattered Clouds,220,2013-06-27 14:15:00
9:35 AM,84.6,73.2,69,30.04,10.0,SSW,6.9,-,N/A,,Scattered Clouds,200,2013-06-27 14:35:00
9:55 AM,85.5,72.1,64,30.04,10.0,SSW,6.9,-,N/A,,Scattered Clouds,210,2013-06-27 14:55:00
10:15 AM,85.1,72.1,65,30.04,10.0,SW,4.6,-,N/A,,Scattered Clouds,230,2013-06-27 15:15:00
10:35 AM,86.2,71.2,61,30.03,10.0,South,5.8,-,N/A,,Scattered Clouds,180,2013-06-27 15:35:00
10:55 AM,88.3,70.7,56,30.03,10.0,SSW,5.8,-,N/A,,Scattered Clouds,210,2013-06-27 15:55:00
11:15 AM,89.2,70.0,53,30.03,10.0,SSW,9.2,-,N/A,,Scattered Clouds,200,2013-06-27 16:15:00
11:35 AM,90.3,70.2,51,30.02,10.0,SSW,6.9,-,N/A,,Scattered Clouds,210,2013-06-27 16:35:00
11:55 AM,91.0,69.3,49,30.02,10.0,SSW,3.5,-,N/A,,Scattered Clouds,200,2013-06-27 16:55:00
12:15 PM,91.4,68.2,46,30.01,10.0,SSW,5.8,-,N/A,,Clear,200,2013-06-27 17:15:00
12:35 PM,92.7,68.5,45,30.01,10.0,South,8.1,-,N/A,,Clear,190,2013-06-27 17:35:00
12:55 PM,93.0,68.5,45,30.00,10.0,SW,8.1,-,N/A,,Clear,220,2013-06-27 17:55:00
1:15 PM,93.0,67.6,43,30.00,10.0,SSW,5.8,-,N/A,,Clear,210,2013-06-27 18:15:00
1:35 PM,93.4,66.9,42,29.99,10.0,South,8.1,-,N/A,,Clear,190,2013-06-27 18:35:00
1:55 PM,94.3,65.7,39,29.98,10.0,South,6.9,-,N/A,,Clear,190,2013-06-27 18:55:00
2:15 PM,94.5,65.8,39,29.98,10.0,SSE,4.6,-,N/A,,Clear,150,2013-06-27 19:15:00
2:35 PM,95.2,64.9,37,29.97,10.0,South,3.5,-,N/A,,Clear,180,2013-06-27 19:35:00
2:55 PM,95.2,64.0,36,29.96,10.0,SE,3.5,-,N/A,,Clear,140,2013-06-27 19:55:00
3:15 PM,96.3,64.9,36,29.96,10.0,SSE,5.8,-,N/A,,Clear,160,2013-06-27 20:15:00
3:35 PM,97.0,64.2,34,29.95,10.0,SSW,5.8,-,N/A,,Clear,200,2013-06-27 20:35:00
3:55 PM,97.0,63.9,33,29.95,10.0,South,6.9,-,N/A,,Clear,180,2013-06-27 20:55:00
4:15 PM,97.2,63.0,32,29.95,10.0,SW,3.5,-,N/A,,Clear,220,2013-06-27 21:15:00
4:35 PM,97.2,63.0,32,29.94,10.0,SSW,4.6,-,N/A,,Clear,210,2013-06-27 21:35:00
4:55 PM,97.0,62.4,32,29.94,10.0,SSE,3.5,-,N/A,,Clear,160,2013-06-27 21:55:00
5:15 PM,97.3,62.8,32,29.93,10.0,WSW,4.6,-,N/A,,Clear,240,2013-06-27 22:15:00
5:35 PM,97.5,63.3,32,29.93,10.0,South,9.2,-,N/A,,Clear,180,2013-06-27 22:35:00
5:55 PM,96.8,63.7,33,29.92,10.0,SSE,5.8,16.1,N/A,,Clear,160,2013-06-27 22:55:00
6:15 PM,93.9,68.5,43,29.92,10.0,SSE,13.8,-,N/A,,Clear,150,2013-06-27 23:15:00
6:35 PM,93.4,68.0,43,29.93,10.0,SSE,12.7,-,N/A,,Clear,160,2013-06-27 23:35:00
6:55 PM,92.1,67.5,44,29.93,10.0,SSE,12.7,-,N/A,,Clear,160,2013-06-27 23:55:00
7:15 PM,90.7,68.2,47,29.93,10.0,SSE,13.8,-,N/A,,Clear,160,2013-06-28 00:15:00
7:35 PM,89.2,68.4,50,29.93,10.0,SSE,15.0,-,N/A,,Clear,160,2013-06-28 00:35:00
7:55 PM,87.4,67.6,52,29.94,10.0,SSE,13.8,17.3,N/A,,Clear,160,2013-06-28 00:55:00
8:15 PM,85.8,68.9,57,29.95,10.0,SSE,12.7,-,N/A,,Clear,150,2013-06-28 01:15:00
8:35 PM,84.4,70.0,62,29.95,10.0,SSE,10.4,-,N/A,,Clear,160,2013-06-28 01:35:00
8:55 PM,83.5,70.9,66,29.95,10.0,SSE,10.4,-,N/A,,Clear,160,2013-06-28 01:55:00
9:15 PM,82.0,71.1,69,29.95,10.0,SSE,8.1,-,N/A,,Clear,160,2013-06-28 02:15:00
9:35 PM,81.7,71.1,70,29.95,10.0,South,9.2,-,N/A,,Clear,170,2013-06-28 02:35:00
9:55 PM,81.1,72.0,74,29.95,10.0,South,9.2,-,N/A,,Clear,170,2013-06-28 02:55:00
10:15 PM,80.6,72.5,76,29.95,10.0,South,9.2,-,N/A,,Clear,170,2013-06-28 03:15:00
10:35 PM,79.9,72.9,79,29.95,10.0,South,6.9,-,N/A,,Clear,170,2013-06-28 03:35:00
10:55 PM,79.3,72.9,80,29.95,-9999.0,South,5.8,-,N/A,,Clear,170,2013-06-28 03:55:00
11:15 PM,78.8,72.9,82,29.95,-9999.0,South,5.8,-,N/A,,Unknown,180,2013-06-28 04:15:00
11:35 PM,78.6,73.4,84,29.96,10.0,South,6.9,-,N/A,,Clear,170,2013-06-28 04:35:00